Weather History for LGRP - September, 2013

Change the Weather History Date:

Thursday, September 5, 2013

  Actual Average Record
Temperature  
Mean Temperature 80 °F -  
Max Temperature 86 °F 82 °F 91 °F (2010)
Min Temperature 75 °F 68 °F 69 °F (2003)
Cooling Degree Days 16    
Growing Degree Days 30 (Base 50)    
Moisture  
Dew Point 55 °F    
Average Humidity 43    
Maximum Humidity 61    
Minimum Humidity 19    
Precipitation  
Precipitation 0.00 in 0.02 in - ()
Sea Level Pressure  
Sea Level Pressure 29.86 in    
Wind  
Wind Speed 11 mph ()    
Max Wind Speed 16 mph    
Max Gust Speed -    
Visibility 6.0 miles    
Events      
Averages and records for this station are not official NWS values.
T = Trace of Precipitation, MM = Missing Value Source: Averaged Metar Reports

Daily Weather History Graph

Daily Weather History Graph

Search for Another Location

Airport or City:

Trip Planner

Search our weather history database for the weather conditions in past years. The results will help you decide how hot, cold, wet, or windy it might be!

Date:

Astronomy

Sep. 05, 2013 Rise Set
Actual Time 6:42 AM EEST 7:29 PM EEST
Civil Twilight 6:15 AM EEST 7:56 PM EEST
Nautical Twilight 5:44 AM EEST 8:26 PM EEST
Astronomical Twilight 5:13 AM EEST 8:58 PM EEST
Moon 6:32 AM EEST (9/5) 7:13 PM EEST (9/5)
Length of Visible Light 13h 40m
Length of Day
12h 47m
Waning Crescent, 0% of the Moon is Illuminated
Sep 5
Waning Crescent
Sep 5
New
Sep 12
First Quarter
Sep 19
Full
Sep 27
Last Quarter

Hourly Weather History & Observations

Time (EEST) Temp. Heat Index Dew Point Humidity Pressure Visibility Wind Dir Wind Speed Gust Speed Precip Events Conditions
12:20 AM 80.6 °F 80.8 °F 57.2 °F 45% 29.86 in - WNW 16.1 mph - N/A   Clear
12:50 AM 78.8 °F - 57.2 °F 47% 29.86 in - WNW 13.8 mph - N/A   Clear
1:20 AM 78.8 °F - 57.2 °F 47% 29.86 in - WNW 13.8 mph - N/A   Clear
1:50 AM 78.8 °F - 57.2 °F 47% 29.86 in - WNW 11.5 mph - N/A   Clear
2:20 AM 78.8 °F - 57.2 °F 47% 29.86 in - WNW 11.5 mph - N/A   Clear
2:50 AM 78.8 °F - 57.2 °F 47% 29.86 in - NW 11.5 mph - N/A   Clear
3:20 AM 78.8 °F - 57.2 °F 47% 29.86 in - WNW 10.4 mph - N/A   Clear
3:50 AM 78.8 °F - 57.2 °F 47% 29.86 in - NW 12.7 mph - N/A   Clear
4:20 AM 78.8 °F - 57.2 °F 47% 29.86 in - NW 12.7 mph - N/A   Clear
4:50 AM 78.8 °F - 55.4 °F 44% 29.86 in - NNW 9.2 mph - N/A   Clear
5:20 AM 78.8 °F - 55.4 °F 44% 29.86 in - NNW 9.2 mph - N/A   Clear
5:50 AM 77.0 °F - 51.8 °F 41% 29.86 in - NW 9.2 mph - N/A   Clear
6:20 AM 77.0 °F - 51.8 °F 41% 29.86 in - NW 9.2 mph - N/A   Clear
6:50 AM 75.2 °F - 48.2 °F 38% 29.86 in - NNW 12.7 mph - N/A   Clear
7:20 AM 75.2 °F - 48.2 °F 38% 29.86 in - NNW 13.8 mph - N/A   Clear
7:50 AM 77.0 °F - 48.2 °F 36% 29.89 in - NNW 13.8 mph - N/A   Clear
8:20 AM 77.0 °F - 48.2 °F 36% 29.89 in - NNW 13.8 mph - N/A   Clear
8:50 AM 77.0 °F - 51.8 °F 41% 29.89 in - NW 10.4 mph - N/A   Clear
9:20 AM 77.0 °F - 51.8 °F 41% 29.89 in - NW 10.4 mph - N/A   Clear
9:50 AM 78.8 °F - 50.0 °F 36% 29.89 in - NNW 11.5 mph - N/A   Clear
10:20 AM 78.8 °F - 50.0 °F 36% 29.89 in - NNW 11.5 mph - N/A   Clear
10:50 AM 80.6 °F - 48.2 °F 32% 29.89 in - NW 11.5 mph - N/A   Clear
11:20 AM 80.6 °F - 48.2 °F 32% 29.89 in - NW 11.5 mph - N/A   Clear
11:50 AM 82.4 °F - 46.4 °F 28% 29.89 in - NW 9.2 mph - N/A   Clear
12:20 PM 82.4 °F - 46.4 °F 28% 29.89 in - NW 9.2 mph - N/A   Clear
12:50 PM 82.4 °F - 50.0 °F 32% 29.89 in - WNW 9.2 mph - N/A   Clear
1:20 PM 82.4 °F - 50.0 °F 32% 29.89 in - WNW 9.2 mph - N/A   Clear
1:50 PM 84.2 °F - 50.0 °F 30% 29.86 in - West 11.5 mph - N/A   Clear
2:20 PM 84.2 °F - 50.0 °F 30% 29.86 in - West 11.5 mph - N/A   Clear
2:50 PM 86.0 °F - 50.0 °F 29% 29.86 in - West 10.4 mph - N/A   Clear
3:00 PM 86 °F - 50 °F 19% 29.87 in 6 mi West 10.4 mph - -  
3:20 PM 86.0 °F - 50.0 °F 29% 29.86 in - West 10.4 mph - N/A   Clear
3:50 PM 86.0 °F 84.5 °F 55.4 °F 35% 29.83 in - WSW 11.5 mph - N/A   Clear
4:20 PM 86.0 °F 84.5 °F 55.4 °F 35% 29.83 in - WSW 11.5 mph - N/A   Clear
4:50 PM 84.2 °F 83.5 °F 57.2 °F 40% 29.83 in - WSW 13.8 mph - N/A   Clear
5:20 PM 84.2 °F 83.5 °F 57.2 °F 40% 29.83 in - WSW 13.8 mph - N/A   Clear
5:50 PM 82.4 °F 82.5 °F 59.0 °F 45% 29.83 in - WSW 13.8 mph - N/A   Clear
6:20 PM 82.4 °F 82.5 °F 59.0 °F 45% 29.83 in - WSW 13.8 mph - N/A   Clear
6:50 PM 80.6 °F 81.1 °F 59.0 °F 48% 29.83 in - WSW 10.4 mph - N/A   Clear
7:20 PM 80.6 °F 81.1 °F 59.0 °F 48% 29.83 in - WSW 10.4 mph - N/A   Clear
7:50 PM 78.8 °F - 62.6 °F 57% 29.83 in - SW 12.7 mph - N/A   Clear
8:20 PM 78.8 °F - 62.6 °F 57% 29.83 in - SW 12.7 mph - N/A   Clear
8:50 PM 75.2 °F - 60.8 °F 61% 29.80 in - SW 9.2 mph - N/A   Clear
9:00 PM 76 °F - 60 °F 48% 29.82 in 6 mi SW 9.2 mph - -  
9:20 PM 75.2 °F - 60.8 °F 61% 29.80 in - SW 9.2 mph - N/A   Clear
9:50 PM 77.0 °F - 59.0 °F 54% 29.86 in - WSW 9.2 mph - N/A   Clear
10:20 PM 77.0 °F - 59.0 °F 54% 29.86 in - WSW 9.2 mph - N/A   Clear
10:50 PM 77.0 °F - 62.6 °F 61% 29.86 in - West 8.1 mph - N/A   Clear
11:20 PM 77.0 °F - 62.6 °F 61% 29.86 in - West 8.1 mph - N/A   Clear
11:50 PM 77.0 °F - 62.6 °F 61% 29.86 in - WNW 9.2 mph - N/A   Clear